We konden geen weer-waarchuwingen ophalen. Ga rechtstreeks naar de Meteoalarm site : www.meteoalarm.eu en controleer daar .



Onweer radar Meer informatie blitzortung!


Regen radar Meer informatie rain snow radar


Bezoek onze andere website:

Template documentation
and downloads

And another site



15 daagse weersverwachting Uster (CH)

  • Overzicht
  • Per uur
  • 15 dagen
  • Extra
  • Vergelijk
  • Kaarten
  • Dagkaart
  • Meer »
  • Info
  • Statistieken
  • Directe link
    Temp 6h Neerslag Wind  
 06:27     20:31    Daglengte: 14:04 Vandaag
02:00
19°
 
2
08:00
17°
 
1
14:00
22°
 
2
20:00
20°
31.3 mm
2
warningclass
 06:29     20:29    Daglengte: 14:00 Morgen
02:00
18°
46.7 mm
2
warningclass
08:00
17°
52.7 mm
2
14:00
20°
56.2 mm
3
20:00
19°
26.2 mm
2
 06:30     20:28    Daglengte: 13:58 Zaterdag 20 Aug
02:00
16°
140.8 mm
2
08:00
17°
188.4 mm
1
14:00
21°
46.9 mm
3
20:00
19°
236.9 mm
1
Locatie info
Region: Uster
Latitude: 47.3495°N
Longitude: 8.7152°E
469 masl
Postcode: 8610
Temp/Neerslag /Baro Onweer/Dauwpunt
    Temp Baro 1h Neerslag Dauwpunt Wind UV Bewolking  
 06:27     20:31    Daglengte: 14:04 Vandaag
01:00
19°
1014.2 hPa
48%
16.2°
2
Windvlaag: 1.3 m/s
44%
02:00
19°
1014.3 hPa
55%
15.7°
2
Windvlaag: 1.3 m/s
21%
03:00
18°
1013.7 hPa
14%
15.3°
1
Windvlaag: 0.6 m/s
25%
04:00
17°
1013.6 hPa
15%
14.9°
1
Windvlaag: 0.5 m/s
37%
05:00
17°
1013.2 hPa
15%
14.5°
1
Windvlaag: -0 m/s
52%
06:00
17°
1012.8 hPa
14%
14.6°
1
Windvlaag: -0.4 m/s
60%
07:00
17°
1012.9 hPa
15%
15.3°
1
Windvlaag: -1 m/s
69%
08:00
17°
1012.8 hPa
16%
14.9°
1
Windvlaag: -0.7 m/s
67%
09:00
18°
1013.5 hPa
17%
15.1°
1
Windvlaag: -1.7 m/s
86%
10:00
19°
1013.2 hPa
15%
14.4°
2
Windvlaag: -1.6 m/s
85%
11:00
20°
1013.3 hPa
22%
14.3°
2
Windvlaag: -1.5 m/s
85%
12:00
20°
1013.1 hPa
67%
14.0°
2
Windvlaag: -1.7 m/s
85%
13:00
21°
1012.6 hPa
31%
14.0°
2
Windvlaag: -1.9 m/s
84%
14:00
22°
1012.4 hPa
82%
13.8°
2
Windvlaag: -2 m/s
86%
15:00
22°
1011.9 hPa
82%
14.0°
2
Windvlaag: -1.8 m/s
73%
16:00
22°
1011.6 hPa 4.2 mm
82%
13.6°
2
Windvlaag: -1.8 m/s
79%
17:00
22°
1011.4 hPa 4.4 mm
82%
13.3°
2
Windvlaag: -1.3 m/s
71% warningclass
18:00
21°
1011.2 hPa 6.7 mm
82%
13.3°
2
Windvlaag: -1.5 m/s
60%
19:00
21°
1011.4 hPa 7.9 mm
82%
12.2°
2
Windvlaag: 0.3 m/s
74% warningclass
20:00
20°
1011.8 hPa 8.2 mm
82%
13.2°
2
Windvlaag: 1.5 m/s
77% warningclass
21:00
19°
1012.4 hPa 7.8 mm
82%
13.8°
2
Windvlaag: 1 m/s
77% warningclass
22:00
19°
1012.6 hPa 7.8 mm
82%
14.1°
2
Windvlaag: 2.5 m/s
80% warningclass
23:00
18°
1012.9 hPa 7.9 mm
82%
14.1°
1
Windvlaag: 1.7 m/s
76% warningclass
 06:29     20:29    Daglengte: 14:00 Morgen
00:00
18°
1013.0 hPa 7.6 mm
79%
14.2°
1
Windvlaag: 1.3 m/s
81%
01:00
18°
1013.1 hPa 7.6 mm
82%
14.9°
2
Windvlaag: 1.5 m/s
79%
02:00
18°
1012.8 hPa 7.9 mm
82%
15.6°
2
Windvlaag: 0 m/s
47% warningclass
03:00
17°
1012.8 hPa 8.1 mm
82%
16.1°
2
Windvlaag: 0.7 m/s
86% warningclass
04:00
17°
1012.8 hPa 8.9 mm
82%
16.2°
2
Windvlaag: 0.7 m/s
86% warningclass
05:00
17°
1013.0 hPa 9.1 mm
82%
16.4°
1
Windvlaag: 0.7 m/s
86% warningclass
06:00
17°
1013.1 hPa 9.0 mm
82%
16.3°
2
Windvlaag: -0.2 m/s
86%
07:00
17°
1013.6 hPa 8.5 mm
82%
16.0°
2
Windvlaag: -0.7 m/s
86% warningclass
08:00
17°
1013.9 hPa 9.1 mm
81%
15.8°
2
Windvlaag: -0.1 m/s
86%
09:00
18°
1014.3 hPa 9.3 mm
76%
15.5°
2
Windvlaag: -0.3 m/s
86%
10:00
18°
1014.8 hPa 12.0 mm
81%
16.4°
2
Windvlaag: 0 m/s
65%
11:00
19°
1015.4 hPa 15.5 mm
82%
17.3°
2
Windvlaag: 0.6 m/s
86%
12:00
19°
1015.7 hPa 19.4 mm
82%
17.3°
2
Windvlaag: 0.4 m/s
84%
13:00
19°
1015.9 hPa
82%
17.5°
2
Windvlaag: 0.8 m/s
86%
14:00
20°
1016.0 hPa
82%
18.3°
3
Windvlaag: 0.8 m/s
77%
15:00
20°
1015.9 hPa 26.2 mm
82%
18.0°
3
Windvlaag: 1.3 m/s
82%
16:00
19°
1016.1 hPa
82%
17.6°
3
Windvlaag: 4 m/s
63%
17:00
19°
1016.2 hPa
82%
17.1°
3
Windvlaag: 4.2 m/s
62%
18:00
19°
1016.3 hPa
82%
17.0°
3
Windvlaag: 4.9 m/s
41%
19:00
20°
1016.4 hPa
81%
17.5°
2
Windvlaag: 4.8 m/s
53%
20:00
19°
1016.6 hPa
38%
17.5°
2
Windvlaag: 3.4 m/s
13%
21:00
19°
1017.2 hPa
21%
17.0°
2
Windvlaag: 2.3 m/s
20%
22:00
18°
1017.7 hPa
27%
16.6°
2
Windvlaag: 1.2 m/s
23%
23:00
17°
1018.3 hPa 47.0 mm
90%
15.2°
1
Windvlaag: 1.2 m/s
45%
 06:30     20:28    Daglengte: 13:58 Zaterdag 20 Aug
00:00
16°
1018.4 hPa 46.9 mm
42%
13.8°
2
Windvlaag: 2.8 m/s
54%
01:00
17°
1018.5 hPa
32%
14.1°
2
Windvlaag: 3.1 m/s
61%
02:00
16°
1018.4 hPa 46.9 mm
29%
13.6°
2
Windvlaag: 2.7 m/s
55%
03:00
16°
1018.4 hPa 47.0 mm
22%
13.5°
2
Windvlaag: 2.3 m/s
58%
04:00
16°
1018.4 hPa 47.0 mm
21%
13.3°
2
Windvlaag: 2.2 m/s
70%
05:00
16°
1018.3 hPa 47.3 mm
21%
13.1°
2
Windvlaag: 2.3 m/s
68%
06:00
16°
1018.3 hPa 47.2 mm
21%
12.8°
3
Windvlaag: 3.4 m/s
50%
07:00
16°
1018.6 hPa
21%
12.1°
2
Windvlaag: 3.5 m/s
48%
08:00
17°
1018.9 hPa
21%
12.7°
1
Windvlaag: 4.6 m/s
18%
09:00
18°
1019.0 hPa
23%
13.6°
1
Windvlaag: 7.7 m/s
35%
10:00
20°
1018.9 hPa 46.9 mm
69%
15.0°
1
Windvlaag: 5.8 m/s
18%
11:00
20°
1018.9 hPa
84%
15.3°
3
Windvlaag: 4 m/s
33%
12:00
21°
1018.8 hPa
89%
16.5°
3
Windvlaag: 3.6 m/s
47%
13:00
21°
1018.8 hPa
87%
16.3°
3
Windvlaag: 3.2 m/s
50%
14:00
21°
1018.5 hPa
88%
15.9°
3
Windvlaag: 3.2 m/s
90%
15:00
21°
1018.3 hPa
97%
16.2°
3
Windvlaag: 3.4 m/s
70%
16:00
21°
1018.2 hPa 47.3 mm
100%
14.9°
3
Windvlaag: 3.3 m/s
83%
17:00
21°
1018.0 hPa 47.4 mm
97%
14.0°
3
Windvlaag: 3.8 m/s
51%
18:00
21°
1018.0 hPa 47.3 mm
100%
13.1°
3
Windvlaag: 4.6 m/s
35%
19:00
20°
1018.4 hPa 47.4 mm
100%
13.4°
2
Windvlaag: 3.9 m/s
44%
20:00
19°
1018.8 hPa 47.5 mm
100%
13.9°
1
Windvlaag: 3.3 m/s
38%
21:00
19°
1019.2 hPa 47.4 mm
94%
14.7°
1
Windvlaag: 3.4 m/s
17%
22:00
18°
1019.4 hPa
94%
14.4°
1
Windvlaag: 1.1 m/s
39%
23:00
17°
1019.2 hPa 47.3 mm
99%
13.8°
1
Windvlaag: 1.3 m/s
8%
 06:31     20:26    Daglengte: 13:55 Zondag 21 Aug
00:00
17°
1019.1 hPa 47.3 mm
100%
14.3°
1
Windvlaag: 1.9 m/s
25%
Temp/Neerslag /Baro Onweer/Dauwpunt
    Temp Baro Neerslag Dauwpunt Wind Bewolking  
 06:27     20:31    Daglengte: 14:04 Vandaag
02:00
19°
1014.3 hPa   15.7°
2
21%
05:00
17°
1013.2 hPa   14.5°
1
52%
08:00
17°
1012.8 hPa   14.9°
1
67%
11:00
20°
1013.3 hPa   14.3°
2
85%
14:00
22°
1012.4 hPa   13.8°
2
86%
17:00
22°
1011.4 hPa 8.6 mm 13.3°
2
71% warningclass
20:00
20°
1011.8 hPa 22.7 mm 13.2°
2
77% warningclass
23:00
18°
1012.9 hPa 23.6 mm 14.1°
1
76% warningclass
 06:29     20:29    Daglengte: 14:00 Morgen
02:00
18°
1012.8 hPa 23.1 mm 15.6°
2
47% warningclass
05:00
17°
1013.0 hPa 26.1 mm 16.4°
1
86% warningclass
08:00
17°
1013.9 hPa 26.6 mm 15.8°
2
86%
11:00
19°
1015.4 hPa 36.8 mm 17.3°
2
86%
14:00
20°
1016.0 hPa 19.4 mm 18.3°
3
77%
17:00
19°
1016.2 hPa 26.2 mm 17.1°
3
62%
20:00
19°
1016.6 hPa   17.5°
2
13%
23:00
17°
1018.3 hPa 47.0 mm 15.2°
1
45%
 06:30     20:28    Daglengte: 13:58 Zaterdag 20 Aug
02:00
16°
1018.4 hPa 93.8 mm 13.6°
2
55%
05:00
16°
1018.3 hPa 141.2 mm 13.1°
2
68%
08:00
17°
1018.9 hPa 47.2 mm 12.7°
1
18%
11:00
20°
1018.9 hPa 46.9 mm 15.3°
3
33%
14:00
21°
1018.5 hPa   15.9°
3
90%
17:00
21°
1018.0 hPa 94.7 mm 14.0°
3
51%
20:00
19°
1018.8 hPa 142.2 mm 13.9°
1
38%
23:00
17°
1019.2 hPa 94.7 mm 13.8°
1
8%
 06:31     20:26    Daglengte: 13:55 Zondag 21 Aug
02:00
16°
1018.8 hPa 142.1 mm 14.5°
1
43%
05:00
13°
1017.5 hPa 85.7 mm 12.4°
1
0%
08:00
15°
1017.7 hPa 85.7 mm 13.8°
0
1%
11:00
20°
1016.4 hPa 86.0 mm 15.8°
1
1%
14:00
21°
1015.3 hPa 87.9 mm 17.9°
1
1%
17:00
21°
1014.9 hPa 90.3 mm 18.7°
2
1%
20:00
17°
1015.8 hPa 92.7 mm 14.3°
1
1%
23:00
15°
1017.0 hPa 93.8 mm 14.0°
2
1%
 06:32     20:24    Daglengte: 13:52 Maandag 22 Aug
02:00
14°
1016.3 hPa 93.8 mm 12.8°
1
1%
05:00
13°
1016.5 hPa 93.8 mm 12.3°
1
1%
08:00
14°
1017.1 hPa 93.8 mm 13.3°
0
1%
11:00
20°
1016.6 hPa 93.8 mm 13.6°
2
0%
14:00
24°
1015.4 hPa 93.9 mm 12.8°
3
0%
17:00
23°
1014.8 hPa 93.9 mm 16.1°
2
1%
20:00
19°
1015.7 hPa 93.9 mm 13.8°
2
1%
23:00
14°
1017.1 hPa 93.9 mm 12.5°
2
0%
 06:34     20:22    Daglengte: 13:48 Dinsdag 23 Aug
02:00
12°
1017.5 hPa 93.9 mm 10.9°
1
0%
05:00
11°
1018.3 hPa 93.9 mm 9.8°
1
0%
08:00
13°
1018.8 hPa 93.9 mm 9.9°
1
0%
11:00
21°
1017.7 hPa 93.9 mm 11.5°
2
0%
14:00
25°
1016.4 hPa 93.9 mm 10.0°
4
0%
17:00
25°
1015.8 hPa 93.9 mm 10.8°
4
0%
20:00
18°
1016.6 hPa 93.9 mm 12.5°
2
0%
23:00
14°
1017.9 hPa 93.9 mm 10.9°
1
0%
 06:35     20:20    Daglengte: 13:45 Woensdag 24 Aug
02:00
12°
1017.8 hPa 93.9 mm 9.5°
1
0%
05:00
11°
1017.9 hPa 93.9 mm 8.8°
1
0%
08:00
13°
1018.3 hPa 93.9 mm 9.6°
1
0%
11:00
20°
1017.5 hPa 93.9 mm 11.3°
2
0%
14:00
24°
1016.2 hPa 93.9 mm 12.5°
2
1%
17:00
25°
1015.5 hPa 93.9 mm 12.0°
2
1%
20:00
19°
1016.2 hPa 93.9 mm 14.1°
1
0%
23:00
15°
1017.7 hPa   12.0°
1
0%
 06:36     20:18    Daglengte: 13:42 Donderdag 25 Aug
02:00
14°
1017.6 hPa 187.9 mm 11.6°
1
0%
08:00
15°
1018.4 hPa 187.9 mm 12.1°
0
0%
14:00
26°
1016.2 hPa 187.9 mm 13.9°
2
0%
20:00
20°
1015.8 hPa 187.9 mm 15.7°
0
0%
 06:38     20:16    Daglengte: 13:38 Vrijdag 26 Aug
02:00
16°
1017.1 hPa 187.9 mm 12.3°
1
0%
08:00
17°
1016.8 hPa 187.9 mm 13.2°
0
0%
14:00
28°
Voelt als: 28.2°
1014.2 hPa 187.9 mm 14.8°
1
1%
20:00
22°
1013.4 hPa 187.9 mm 17.2°
1
0%
 06:39     20:15    Daglengte: 13:36 Zaterdag 27 Aug
02:00
17°
1015.0 hPa 188.1 mm 14.7°
2
0%
08:00
17°
1016.4 hPa 189.1 mm 15.6°
1
1%
14:00
28°
1015.2 hPa 189.5 mm 17.2°
1
1%
20:00
22°
1018.6 hPa 1.3 mm 17.5°
1
56%
 06:40     20:13    Daglengte: 13:33 Zondag 28 Aug
02:00
18°
1019.7 hPa 0.8 mm 15.0°
1
59%
08:00
19°
1020.0 hPa 0.6 mm 15.8°
0
60%
14:00
27°
1018.8 hPa 0.5 mm 17.6°
2
55%
20:00
22°
1019.5 hPa 1.3 mm 17.8°
1
59%
 06:42     20:11    Daglengte: 13:29 Maandag 29 Aug
02:00
18°
1020.5 hPa 1.0 mm 15.3°
1
61%
08:00
18°
1020.5 hPa 1.0 mm 15.7°
0
51%
14:00
27°
1019.3 hPa 1.0 mm 17.5°
1
51%
20:00
22°
1019.3 hPa 1.3 mm 17.2°
1
64%
 06:43     20:09    Daglengte: 13:26 Dinsdag 30 Aug
02:00
17°
1020.3 hPa 0.6 mm 14.4°
1
61%
08:00
18°
1020.1 hPa 0.5 mm 15.0°
0
52%
14:00
26°
1018.4 hPa 0.7 mm 16.8°
1
52%
20:00
21°
1018.5 hPa 1.8 mm 16.7°
0
61%
 06:44     20:07    Daglengte: 13:23 Woensdag 31 Aug
02:00
17°
1019.5 hPa 0.8 mm 14.2°
1
50%
08:00
17°
1019.0 hPa 0.4 mm 14.5°
0
48%
14:00
26°
1017.2 hPa 0.5 mm 16.1°
1
45%
20:00
20°
1017.5 hPa 1.9 mm 16.3°
0
57%
 06:46     20:05    Daglengte: 13:19 Donderdag 01 Sep
02:00
16°
1018.9 hPa 1.0 mm 13.6°
0
51%
08:00
16°
1019.0 hPa 0.5 mm 13.5°
0
50%
14:00
25°
1017.4 hPa 0.8 mm 15.0°
1
46%
20:00
20°
1018.0 hPa 0.9 mm 15.1°
1
52%
  CAPE Lifted Index Hail Supercell Tornado SRH 3km CL BTM PRES CL TOP PRES Swiss DWD icon SMHI TS
 06:27     20:31    Daglengte: 14:04 Vandaag
01:00 9 J/kg -1.7 K 0 % 0 % 0 % 0 m²/s² 0 0 -1.22 3
02:00 0 J/kg -1.6 K 0 % 0 % 0 % 0 m²/s² 0 0 -1.24 2
03:00 3 J/kg -0.3 K 0 % 0 % 0 % 0 m²/s² 0 0 0.39 3
04:00 3 J/kg 0.1 K 0 % 0 % 0 % 0 m²/s² 0 0 0.55 3
05:00 1 J/kg 0.2 K 0 % 0 % 0 % 0 m²/s² 0 0 0.59 3
06:00 2 J/kg -1.3 K 0 % 0 % 0 % 0 m²/s² 0 0 -1.12 3
07:00 1 J/kg -0.4 K 0 % 0 % 0 % 0 m²/s² 0 0 0.95 3
08:00 5 J/kg 0.1 K 0 % 0 % 0 % 0 m²/s² 0 0 2.05 3
09:00 9 J/kg -0.2 K 0 % 0 % 0 % 0 m²/s² 0 0 0.37 3
10:00 0 J/kg -0.5 K 0 % 0 % 0 % 0 m²/s² 0 0 0.85 3
11:00 149 J/kg -0.3 K 0 % 0 % 0 % 0 m²/s² 0 0 0.27 3
12:00 190 J/kg -0.7 K 0 % 0 % 0 % 0 m²/s² 0 0 -0.04 3
13:00 279 J/kg -1.6 K 0 % 0 % 0 % 0 m²/s² 0 0 0.14 3
14:00 329 J/kg -1.3 K 0 % 0 % 0 % 0 m²/s² 0 0 -0.13 3
15:00 434 J/kg -2.5 K 0 % 0 % 0 % 0 m²/s² 0 0 -1.93 3
16:00 386 J/kg -2.4 K 0 % 0 % 0 % 0 m²/s² 0 0 -2.37 3
17:00 520 J/kg -2.2 K 0 % 0 % 0 % 0 m²/s² 0 0 -2.2 80
18:00 108 J/kg -0.7 K 0 % 0 % 0 % 0 m²/s² 0 0 0.11 80
19:00 190 J/kg -1.0 K 0 % 0 % 0 % 0 m²/s² 0 0 -1 95
20:00 294 J/kg -1.3 K 0 % 0 % 0 % 0 m²/s² 0 0 -1.3 95
21:00 334 J/kg -1.9 K 0 % 0 % 0 % 0 m²/s² 0 0 -1.9 95
22:00 154 J/kg -1.0 K 0 % 0 % 0 % 0 m²/s² 0 0 -0.7 95
23:00 127 J/kg -1.0 K 0 % 0 % 0 % 0 m²/s² 0 0 -0.61 95
 06:29     20:29    Daglengte: 14:00 Morgen
00:00 120 J/kg -0.6 K 0 % 0 % 0 % 0 m²/s² 0 0 0.84 80
01:00 138 J/kg -0.3 K 0 % 0 % 0 % 0 m²/s² 0 0 1.14 3
02:00 157 J/kg -0.7 K 0 % 0 % 0 % 0 m²/s² 0 0 1.28 95
03:00 116 J/kg -1.1 K 0 % 0 % 0 % 0 m²/s² 0 0 0.97 95
04:00 145 J/kg -1.7 K 0 % 0 % 0 % 0 m²/s² 0 0 -0.47 95
05:00 81 J/kg -1.4 K 0 % 0 % 0 % 0 m²/s² 0 0 0.1 95
06:00 34 J/kg -1.0 K 0 % 0 % 0 % 0 m²/s² 0 0 0.68 61
07:00 33 J/kg -1.9 K 0 % 0 % 0 % 0 m²/s² 0 0 -1.27 95
08:00 0 J/kg -1.6 K 0 % 0 % 0 % 0 m²/s² 0 0 -1.06 80
09:00 0 J/kg -2.2 K 0 % 0 % 0 % 0 m²/s² 0 0 -1.81 80
10:00 2 J/kg -0.2 K 0 % 0 % 0 % 0 m²/s² 0 0 -0.11 80
11:00 15 J/kg -0.5 K 0 % 0 % 0 % 0 m²/s² 0 0 -0.47 3
12:00 32 J/kg 0.2 K 0 % 0 % 0 % 0 m²/s² 0 0 0.32 3
13:00 93 J/kg -0.5 K 0 % 0 % 0 % 0 m²/s² 0 0 -0.5 3
14:00 226 J/kg -1.1 K 0 % 0 % 0 % 0 m²/s² 0 0 -1.1 3
15:00 320 J/kg -1.6 K 0 % 0 % 0 % 0 m²/s² 0 0 -1.6 63
16:00 352 J/kg -1.3 K 0 % 0 % 0 % 0 m²/s² 0 0 -1.3 65
17:00 461 J/kg -1.9 K 0 % 0 % 0 % 0 m²/s² 0 0 -1.9 80
18:00 487 J/kg -2.9 K 0 % 0 % 0 % 0 m²/s² 0 0 -2.9 80
19:00 399 J/kg -2.5 K 0 % 0 % 0 % 0 m²/s² 0 0 -2.29 3
20:00 385 J/kg -2.2 K 0 % 0 % 0 % 0 m²/s² 0 0 -2.02 2
21:00 285 J/kg -1.0 K 0 % 0 % 0 % 0 m²/s² 0 0 -0.55 3
22:00 192 J/kg -0.4 K 0 % 0 % 0 % 0 m²/s² 0 0 0.77 3
23:00 80 J/kg 1.1 K 0 % 0 % 0 % 0 m²/s² 0 0 2.42 2
 06:30     20:28    Daglengte: 13:58 Zaterdag 20 Aug
00:00 0 J/kg 1.9 K 0 % 0 % 0 % 0 m²/s² 0 0 4.12 2
01:00 0 J/kg 1.8 K 0 % 0 % 0 % 0 m²/s² 0 0 4.32 1
02:00 0 J/kg 2.1 K 0 % 0 % 0 % 0 m²/s² 0 0 5.25 1
03:00 0 J/kg 1.9 K 0 % 0 % 0 % 0 m²/s² 0 0 4 1
04:00 0 J/kg 1.9 K 0 % 0 % 0 % 0 m²/s² 0 0 3.34 2
05:00 0 J/kg 1.5 K 0 % 0 % 0 % 0 m²/s² 0 0 2.97 2
06:00 0 J/kg 1.3 K 0 % 0 % 0 % 0 m²/s² 0 0 2.8 2
07:00 0 J/kg 1.0 K 0 % 0 % 0 % 0 m²/s² 0 0 2.56 1
08:00 0 J/kg 0.8 K 0 % 0 % 0 % 0 m²/s² 0 0 1.79 1
09:00 0 J/kg 0.8 K 0 % 0 % 0 % 0 m²/s² 0 0 1.37 2
10:00 15 J/kg 0.5 K 0 % 0 % 0 % 0 m²/s² 0 0 1.16 2
11:00 191 J/kg -0.7 K 0 % 0 % 0 % 0 m²/s² 0 0 0.02 2
12:00 371 J/kg -1.4 K 0 % 0 % 0 % 0 m²/s² 0 0 -0.83 3
13:00 555 J/kg -1.8 K 0 % 0 % 0 % 0 m²/s² 0 0 -1.32 3
14:00 607 J/kg -1.7 K 0 % 0 % 0 % 0 m²/s² 0 0 -0.95 3
15:00 580 J/kg -1.9 K 0 % 0 % 0 % 0 m²/s² 0 0 -1.18 3
16:00 617 J/kg -2.1 K 0 % 0 % 0 % 0 m²/s² 0 0 -1.44 3
17:00 615 J/kg -2.2 K 0 % 0 % 0 % 0 m²/s² 0 0 -1.36 3
18:00 606 J/kg -2.2 K 0 % 0 % 0 % 0 m²/s² 0 0 -1 3
19:00 658 J/kg -2.2 K 0 % 0 % 0 % 0 m²/s² 0 0 0.11 3
20:00 727 J/kg -2.4 K 0 % 0 % 0 % 0 m²/s² 0 0 0.93 80
21:00 622 J/kg -2.1 K 0 % 0 % 0 % 0 m²/s² 0 0 2.01 2
22:00 523 J/kg -1.8 K 0 % 0 % 0 % 0 m²/s² 0 0 2.61 3
23:00 296 J/kg -1.0 K 0 % 0 % 0 % 0 m²/s² 0 0 4.61 2
 06:31     20:26    Daglengte: 13:55 Zondag 21 Aug
00:00 160 J/kg -0.4 K 0 % 0 % 0 % 0 m²/s² 0 0 5.36 2
Temp Baro Wind Neerslag
  EWN Forecast EWN WRFDA DWD ICON FMI HIRLAM MET Norway GFS
 06:27     20:31    Daglengte: 14:04 Vandaag
02:00 18.7° 1014.3 hPa 1.9 m/s 0.0 mm 16.9° 1012.4 hPa 2.3 m/s 26.0 mm 18.9° 1013.6 hPa 0.4 m/s -1.1 mm 19.8° 1015.8 hPa 2.8 m/s 0.0 mm 16.8° 1014.4 hPa 1.3 m/s
05:00 17.1° 1013.2 hPa 1.1 m/s 0.0 mm 16.0° 1011.3 hPa 2.6 m/s 57.8 mm 16.6° 1012.5 hPa 1.3 m/s 0.0 mm 18.6° 1015.8 hPa 0.6 m/s 0.0 mm 16.6° 1013.6 hPa 1.0 m/s
08:00 17.2° 1012.8 hPa 1.3 m/s 0.0 mm 16.4° 1010.2 hPa 1.7 m/s 58.6 mm 16.9° 1012.9 hPa 1.2 m/s 0.0 mm 18.6° 1014.5 hPa 1.5 m/s 0.0 mm 16.8° 1014.2 hPa 0.5 m/s
11:00 19.7° 1013.3 hPa 1.9 m/s 0.0 mm 19.6° 1012.0 hPa 1.5 m/s 59.2 mm 19.3° 1013.4 hPa 2.0 m/s 0.0 mm 22.0° 1014.3 hPa 2.7 m/s 0.0 mm 19.9° 1013.4 hPa 1.3 m/s
14:00 21.9° 1012.4 hPa 1.7 m/s 0.0 mm 22.9° 1008.9 hPa 2.6 m/s 59.3 mm 20.7° 1012.7 hPa 1.3 m/s 0.2 mm 23.9° 1013.5 hPa 4.0 m/s 0.0 mm 20.9° 1012.3 hPa 1.7 m/s
17:00 21.8° 1011.4 hPa 2.2 m/s 8.6 mm 22.0° 1009.0 hPa 2.5 m/s 60.1 mm 20.4° 1012.0 hPa 1.5 m/s 0.9 mm 25.6° 1011.1 hPa 4.2 m/s 0.0 mm 19.6° 1012.1 hPa 1.3 m/s
20:00 19.6° 1011.8 hPa 2.1 m/s 22.7 mm 19.0° 1008.6 hPa 1.2 m/s 91.8 mm 18.5° 1012.4 hPa 1.1 m/s 4.4 mm 24.2° 1012.0 hPa 2.9 m/s 0.0 mm 17.9° 1012.2 hPa 1.4 m/s
23:00 18.2° 1012.9 hPa 1.5 m/s 23.6 mm 16.6° 1009.2 hPa 0.9 m/s 95.5 mm 17.9° 1013.4 hPa 0.9 m/s 4.7 mm 21.9° 1012.9 hPa 1.8 m/s 0.0 mm 16.9° 1012.5 hPa 1.2 m/s
 06:29     20:29    Daglengte: 14:00 Morgen
02:00 17.7° 1012.8 hPa 1.7 m/s 23.1 mm 17.4° 1009.4 hPa 1.2 m/s 97.3 mm 17.2° 1013.6 hPa 1.3 m/s 2.1 mm 19.5° 1012.7 hPa 1.7 m/s 0.0 mm 16.2° 1013.1 hPa 0.5 m/s
05:00 17.2° 1013.0 hPa 1.4 m/s 26.1 mm 16.9° 1009.0 hPa 1.4 m/s 98.8 mm 17.1° 1013.5 hPa 1.0 m/s 4.1 mm 18.1° 1012.9 hPa 1.3 m/s 0.0 mm 16.3° 1012.4 hPa 1.0 m/s
08:00 17.3° 1013.9 hPa 2.1 m/s 26.6 mm 16.1° 1009.1 hPa 3.3 m/s 108.2 mm 17.2° 1014.9 hPa 1.8 m/s 5.1 mm 18.6° 1013.5 hPa 1.6 m/s 0.0 mm 16.1° 1013.1 hPa 1.3 m/s
11:00 18.6° 1015.4 hPa 1.9 m/s 36.8 mm 16.2° 1011.7 hPa 1.2 m/s 177.7 mm 19.1° 1016.1 hPa 1.7 m/s 1.0 mm 19.7° 1013.9 hPa 1.8 m/s 0.0 mm 16.4° 1015.2 hPa 1.7 m/s
14:00 20.0° 1016.0 hPa 2.8 m/s 19.4 mm 16.9° 1012.7 hPa 1.3 m/s 317.3 mm 20.6° 1016.6 hPa 2.4 m/s 0.3 mm 21.7° 1014.0 hPa 3.1 m/s 0.0 mm 17.1° 1016.0 hPa 2.3 m/s
17:00 19.4° 1016.2 hPa 3.1 m/s 26.2 mm 17.9° 1014.3 hPa 1.6 m/s 389.2 mm 19.5° 1016.7 hPa 3.0 m/s 13.6 mm 20.6° 1014.2 hPa 4.0 m/s 0.0 mm 16.7° 1016.7 hPa 2.4 m/s
20:00 19.2° 1016.6 hPa 1.9 m/s 0.0 mm 18.3° 1014.9 hPa 1.9 m/s 417.5 mm 19.1° 1017.8 hPa 1.9 m/s 1.8 mm 20.5° 1015.1 hPa 2.1 m/s 0.0 mm 16.6° 1017.0 hPa 1.7 m/s
23:00 17.4° 1018.3 hPa 1.4 m/s 47.0 mm 17.6° 1016.2 hPa 2.3 m/s 421.4 mm 17.7° 1018.6 hPa 1.6 m/s 0.2 mm 15.7° 1018.3 hPa 1.8 m/s
 06:30     20:28    Daglengte: 13:58 Zaterdag 20 Aug
02:00 16.3° 1018.4 hPa 1.7 m/s 93.8 mm 14.7° 1015.9 hPa 2.9 m/s 421.4 mm 16.7° 1018.8 hPa 1.5 m/s 0.0 mm 14.8° 1018.1 hPa 1.9 m/s
05:00 16.0° 1018.3 hPa 2.1 m/s 141.2 mm 13.9° 1016.2 hPa 3.0 m/s 421.4 mm 16.2° 1018.5 hPa 1.2 m/s 0.0 mm 14.9° 1017.7 hPa 1.1 m/s
08:00 17.1° 1018.9 hPa 0.8 m/s 47.2 mm 17.1° 1017.2 hPa 2.8 m/s 421.4 mm 17.1° 1019.3 hPa 0.3 m/s 0.0 mm 16.2° 1018.0 hPa 0.9 m/s
11:00 20.4° 1018.9 hPa 2.6 m/s 46.9 mm 20.2° 1017.9 hPa 3.2 m/s 421.4 mm 20.5° 1019.1 hPa 2.4 m/s 0.2 mm 21.1° 1017.3 hPa 1.8 m/s
14:00 21.1° 1018.5 hPa 2.8 m/s 0.0 mm 21.0° 1017.4 hPa 2.2 m/s 422.3 mm 21.1° 1018.8 hPa 3.0 m/s 0.1 mm 21.1° 1017.9 hPa 2.8 m/s
17:00 21.2° 1018.0 hPa 3.0 m/s 94.7 mm 22.1° 1016.8 hPa 1.9 m/s 423.9 mm 20.9° 1018.3 hPa 3.3 m/s 0.7 mm 21.4° 1017.3 hPa 1.3 m/s
20:00 19.4° 1018.8 hPa 0.9 m/s 142.2 mm 21.2° 1016.6 hPa 1.1 m/s 424.4 mm 19.0° 1019.4 hPa 0.9 m/s 1.1 mm 17.8° 1017.9 hPa 0.5 m/s
23:00 17.1° 1019.2 hPa 0.8 m/s 94.7 mm 16.5° 1016.9 hPa 1.0 m/s 425.1 mm 17.2° 1019.8 hPa 0.7 m/s 0.5 mm 14.4° 1019.4 hPa 1.5 m/s
 06:31     20:26    Daglengte: 13:55 Zondag 21 Aug
02:00 16.2° 1018.8 hPa 0.7 m/s 142.1 mm 14.4° 1016.9 hPa 2.3 m/s 425.1 mm 16.6° 1019.3 hPa 0.3 m/s 0.5 mm 13.6° 1018.8 hPa 1.0 m/s
05:00 13.0° 1017.5 hPa 1.1 m/s 85.7 mm 13.0° 1017.5 hPa 1.1 m/s 85.7 mm
08:00 14.7° 1017.7 hPa 0.5 m/s 85.7 mm 14.7° 1017.7 hPa 0.5 m/s 85.7 mm
11:00 19.9° 1016.4 hPa 1.3 m/s 86.0 mm 19.9° 1016.4 hPa 1.3 m/s 86.0 mm
14:00 21.0° 1015.3 hPa 1.2 m/s 87.9 mm 21.0° 1015.3 hPa 1.2 m/s 87.9 mm
17:00 20.7° 1014.9 hPa 1.5 m/s 90.3 mm 20.7° 1014.9 hPa 1.5 m/s 90.3 mm
20:00 17.0° 1015.8 hPa 1.1 m/s 92.7 mm 17.0° 1015.8 hPa 1.1 m/s 92.7 mm
23:00 15.0° 1017.0 hPa 1.6 m/s 93.8 mm 15.0° 1017.0 hPa 1.6 m/s 93.8 mm
 06:32     20:24    Daglengte: 13:52 Maandag 22 Aug
02:00 13.8° 1016.3 hPa 0.7 m/s 93.8 mm 13.8° 1016.3 hPa 0.7 m/s 93.8 mm
05:00 13.3° 1016.5 hPa 1.0 m/s 93.8 mm 13.3° 1016.5 hPa 1.0 m/s 93.8 mm
08:00 14.4° 1017.1 hPa 0.2 m/s 93.8 mm 14.4° 1017.1 hPa 0.2 m/s 93.8 mm
11:00 20.0° 1016.6 hPa 1.6 m/s 93.8 mm 20.0° 1016.6 hPa 1.6 m/s 93.8 mm
14:00 23.8° 1015.4 hPa 3.0 m/s 93.9 mm 23.8° 1015.4 hPa 3.0 m/s 93.9 mm
17:00 22.9° 1014.8 hPa 2.3 m/s 93.9 mm 22.9° 1014.8 hPa 2.3 m/s 93.9 mm
20:00 18.9° 1015.7 hPa 1.7 m/s 93.9 mm 18.9° 1015.7 hPa 1.7 m/s 93.9 mm
23:00 14.3° 1017.1 hPa 1.6 m/s 93.9 mm 14.3° 1017.1 hPa 1.6 m/s 93.9 mm
 06:34     20:22    Daglengte: 13:48 Dinsdag 23 Aug
02:00 12.5° 1017.5 hPa 1.0 m/s 93.9 mm 12.5° 1017.5 hPa 1.0 m/s 93.9 mm
05:00 11.2° 1018.3 hPa 1.1 m/s 93.9 mm 11.2° 1018.3 hPa 1.1 m/s 93.9 mm
08:00 13.4° 1018.8 hPa 0.6 m/s 93.9 mm 13.4° 1018.8 hPa 0.6 m/s 93.9 mm
11:00 20.6° 1017.7 hPa 2.2 m/s 93.9 mm 20.6° 1017.7 hPa 2.2 m/s 93.9 mm
14:00 24.6° 1016.4 hPa 3.9 m/s 93.9 mm 24.6° 1016.4 hPa 3.9 m/s 93.9 mm
17:00 24.6° 1015.8 hPa 4.0 m/s 93.9 mm 24.6° 1015.8 hPa 4.0 m/s 93.9 mm
20:00 18.0° 1016.6 hPa 2.0 m/s 93.9 mm 18.0° 1016.6 hPa 2.0 m/s 93.9 mm
23:00 14.0° 1017.9 hPa 1.5 m/s 93.9 mm 14.0° 1017.9 hPa 1.5 m/s 93.9 mm
 06:35     20:20    Daglengte: 13:45 Woensdag 24 Aug
02:00 12.1° 1017.8 hPa 0.8 m/s 93.9 mm 12.1° 1017.8 hPa 0.8 m/s 93.9 mm
05:00 10.9° 1017.9 hPa 0.9 m/s 93.9 mm 10.9° 1017.9 hPa 0.9 m/s 93.9 mm
08:00 13.0° 1018.3 hPa 0.5 m/s 93.9 mm 13.0° 1018.3 hPa 0.5 m/s 93.9 mm
11:00 20.0° 1017.5 hPa 1.8 m/s 93.9 mm 20.0° 1017.5 hPa 1.8 m/s 93.9 mm
14:00 24.2° 1016.2 hPa 2.2 m/s 93.9 mm 24.2° 1016.2 hPa 2.2 m/s 93.9 mm
17:00 25.2° 1015.5 hPa 2.3 m/s 93.9 mm 25.2° 1015.5 hPa 2.3 m/s 93.9 mm
20:00 18.6° 1016.2 hPa 1.4 m/s 93.9 mm 18.6° 1016.2 hPa 1.4 m/s 93.9 mm
23:00 14.9° 1017.7 hPa 1.2 m/s 93.9 mm 14.9° 1017.7 hPa 1.2 m/s 93.9 mm
 06:36     20:18    Daglengte: 13:42 Donderdag 25 Aug
02:00 13.5° 1017.6 hPa 0.8 m/s 93.9 mm 13.5° 1017.6 hPa 0.8 m/s 93.9 mm
08:00 14.5° 1018.4 hPa 0.4 m/s 93.9 mm 14.5° 1018.4 hPa 0.4 m/s 93.9 mm
14:00 26.1° 1016.2 hPa 1.5 m/s 93.9 mm 26.1° 1016.2 hPa 1.5 m/s 93.9 mm
20:00 20.2° 1015.8 hPa 0.3 m/s 93.9 mm 20.2° 1015.8 hPa 0.3 m/s 93.9 mm
 06:38     20:16    Daglengte: 13:38 Vrijdag 26 Aug
02:00 15.7° 1017.1 hPa 1.0 m/s 93.9 mm 15.7° 1017.1 hPa 1.0 m/s 93.9 mm
08:00 16.7° 1016.8 hPa 0.4 m/s 93.9 mm 16.7° 1016.8 hPa 0.4 m/s 93.9 mm
14:00 28.2° 1014.2 hPa 1.3 m/s 93.9 mm 28.2° 1014.2 hPa 1.3 m/s 93.9 mm
20:00 21.9° 1013.4 hPa 1.0 m/s 93.9 mm 21.9° 1013.4 hPa 1.0 m/s 93.9 mm
 06:39     20:15    Daglengte: 13:36 Zaterdag 27 Aug
02:00 17.5° 1015.0 hPa 1.7 m/s 94.1 mm 17.5° 1015.0 hPa 1.7 m/s 94.1 mm
08:00 17.3° 1016.4 hPa 0.9 m/s 94.7 mm 17.3° 1016.4 hPa 0.9 m/s 94.7 mm
14:00 28.2° 1015.2 hPa 1.3 m/s 94.7 mm